{"data":{"norad_id":47276,"epoch":"2026-09-20T04:21:11.993184Z","epoch_age_seconds":41889,"freshness":"FRESH","line1":"1 47276U 20100U   26263.18138881  .00000442  00000+0  11934-2 0  9995","line2":"2 47276  87.8986 331.7977 0001850  97.0815 263.0524 13.12442385277107","mean_motion":13.12442385,"eccentricity":0.000185,"inclination_deg":87.8986,"raan_deg":331.7977,"arg_perigee_deg":97.0815,"mean_anomaly_deg":263.0524,"bstar":0.0011934,"rev_number":27710,"period_min":109.71910206938,"perigee_km":1212.3211681116,"apogee_km":1215.1301572968,"semimajor_km":7591.8626627042,"source":"CELESTRAK","updated_at":"2026-09-20T09:00:44.579670Z"}}